This demonstration page uses our WeatherBlox Daily Observations layout. Learn more.

Left ArrowRight Arrow

Hourly Observations for June 16, 2016

Temp ( °F °C ) Dew Point ( °F °C ) Humidity (%) Winds ( mph kmh ) Pressure ( in mb ) Visibility ( mi km ) Precip ( " mm )
12:53 am 00:53 Cloudy 53 11.7 50 10 89 89 N 5 7 29.98 1015 10 16 0.00 0.00
1:53 am 01:53 Cloudy 53 11.7 50 10 89 89 Calm 29.99 1016 10 16 0.00 0.00
2:53 am 02:53 Cloudy 54 12.2 50 10 87 87 N 6 9 30.00 1016 10 16 0.00 0.00
3:53 am 03:53 Cloudy 54 12.2 49 9.4 83 83 NNE 5 7 30.01 1016 10 16 0.00 0.00
4:53 am 04:53 Cloudy with Rain 54 12.2 50 10 87 87 ENE 5 7 30.03 1017 5 8 0.04 1.02
5:53 am 05:53 Cloudy 54 12.2 49 9.4 83 83 SE 6 9 30.04 1017 10 16 0.02 0.51
6:53 am 06:53 Cloudy with Light Rain 54 12.2 48 8.9 80 80 SSW 6 9 30.06 1018 9 14 0.01 0.25
7:53 am 07:53 Cloudy 55 12.8 49 9.4 80 80 Calm 30.08 1019 10 16 0.00 0.03
8:53 am 08:53 Mostly Cloudy 57 13.9 48 8.9 72 72 S 8 13 30.09 1019 10 16 0.00 0.00
9:53 am 09:53 Cloudy 59 15 46 7.8 62 62 Calm 30.09 1019 10 16 0.00 0.00
10:53 am 10:53 Mostly Sunny 62 16.7 45 7.2 54 54 VRB 3 6 30.08 1019 10 16 0.00 0.00
11:53 am 11:53 Partly Cloudy 64 17.8 44 6.7 48 48 Calm 30.09 1019 10 16 0.00 0.00
12:53 pm 12:53 Sunny 68 20 43 6.1 40 40 Calm 30.06 1018 10 16 0.00 0.00
1:53 pm 13:53 Partly Cloudy 70 21.1 42 5.6 37 37 VRB 3 6 30.06 1018 10 16 0.00 0.00
2:53 pm 14:53 Sunny 71 21.7 39 3.9 31 31 SW 8 13 30.04 1017 10 16 0.00 0.00
3:53 pm 15:53 Mostly Cloudy 70 21.1 42 5.6 37 37 W 6 9 30.02 1017 10 16 0.00 0.00
4:53 pm 16:53 Partly Cloudy 73 22.8 39 3.9 29 29 SW 10 17 30.00 1016 10 16 0.00 0.00
5:53 pm 17:53 Mostly Cloudy 73 22.8 40 4.4 30 30 SSW 14 22 29.98 1015 10 16 0.00 0.00
6:53 pm 18:53 Cloudy 71 21.7 43 6.1 36 36 SSW 7 11 29.99 1016 10 16 0.00 0.00
7:53 pm 19:53 Mostly Cloudy 69 20.6 46 7.8 44 44 SSE 14 22 29.99 1016 10 16 0.00 0.00
8:53 pm 20:53 Cloudy with Light Rain 65 18.3 49 9.4 56 56 S 8 13 30.00 1016 10 16 0.00 0.03
9:53 pm 21:53 Cloudy 64 17.8 49 9.4 58 58 SE 9 15 30.02 1017 10 16 0.00 0.03
10:53 pm 22:53 Cloudy 63 17.2 51 10.6 65 65 Calm 30.03 1017 10 16 0.00 0.00
11:53 pm 23:53 Cloudy 61 16.1 52 11.1 72 72 NW 6 9 30.02 1017 10 16 0.00 0.00

Powered by AerisWeather